Wind_Speed
8 7 7 6 6 6 5 5 5 6 6 7 7 7 7 8 8 8 8 8 9 8 8 9 8 8 8 6 4 3 4 5 7 9 12 14 16 18 20 23 26 27 29 31
8 8 7 6 6 5 5 4 5 4 5 5 5 5 5 6 6 6 6 6 6 6 6 6 5 5 5 4 3 2 2 4 7 9 11 14 16 18 20 23 25 28 30 32
6 6 5 5 5 4 4 3 3 2 3 3 3 3 3 3 4 4 4 5 5 6 6 5 5 5 4 3 2 2 2 4 6 9 11 14 17 20 22 24 26 28 30 33
4 4 4 4 4 3 2 2 1 1 2 2 3 2 2 3 4 4 4 4 5 5 4 4 4 5 5 5 5 5 5 6 8 10 13 15 18 21 24 26 28 30 33 35
3 3 4 3 3 2 2 2 2 2 2 3 3 3 3 3 4 4 5 5 5 5 6 6 6 6 7 8 9 10 11 12 14 16 18 20 22 25 28 31 34 36 37 40
0 0 1 1 1 0 1 2 2 3 4 3 3 4 4 5 5 6 7 8 8 8 8 9 10 11 12 13 14 15 17 18 20 22 24 26 28 30 33 36 39 42 44 46
2 2 2 2 2 3 3 4 4 5 5 5 5 5 6 7 8 9 10 11 11 12 12 13 15 16 17 18 20 20 22 23 24 26 28 30 32 34 37 40 43 46 49 51
4 5 5 6 6 6 6 7 7 6 6 7 8 8 9 10 11 12 13 14 15 15 16 17 18 19 21 22 23 25 26 27 29 30 32 35 37 39 42 45 48 51 54 56
7 7 8 8 9 9 9 9 9 9 10 10 11 12 13 14 15 16 16 17 18 18 19 20 21 22 24 25 26 28 29 31 33 35 38 40 43 45 48 50 53 55 58 60
10 10 11 10 10 10 10 10 11 12 13 14 14 15 16 17 18 18 19 20 20 21 22 23 25 26 27 29 30 32 34 36 38 41 43 45 48 50 52 54 56 57 59 61
13 13 12 12 13 13 13 13 14 15 16 17 18 18 19 19 19 20 21 22 23 24 25 26 28 30 32 33 35 37 39 40 42 45 47 49 52 54 55 56 58 59 61 63
15 16 15 15 16 16 17 17 18 18 19 19 20 21 22 22 23 23 24 25 26 27 29 30 32 34 36 37 39 41 42 44 46 49 51 53 54 55 57 58 60 61 62 63
17 18 18 18 19 19 19 20 20 21 22 23 23 24 24 25 26 26 27 28 29 31 32 34 36 37 39 41 42 44 46 49 51 53 54 55 56 56 57 59 61 61 61 61
21 21 21 21 22 22 23 23 24 25 25 25 26 27 27 28 28 29 30 31 33 34 36 37 39 41 43 44 46 48 50 52 53 55 55 56 57 58 59 59 59 59 60 60
25 25 25 25 26 26 26 27 27 28 29 29 30 30 31 31 32 32 33 35 36 37 39 41 42 44 45 47 49 51 52 54 55 56 57 58 58 59 59 59 59 58 58 58
27 28 28 28 29 29 30 30 30 31 32 32 32 33 33 34 34 35 36 38 39 40 42 43 45 46 48 49 51 52 54 55 56 57 58 59 59 59 59 59 58 57 56 55
29 30 30 31 31 32 32 33 33 34 34 34 35 35 35 36 37 37 39 40 41 43 44 46 47 48 50 51 52 53 55 57 57 58 59 59 59 59 58 58 57 55 54 52
30 31 31 32 33 34 34 34 35 35 35 36 37 37 37 38 39 40 41 42 43 45 46 47 49 50 51 52 53 54 56 57 58 59 59 59 58 58 57 57 55 53 51 49
32 32 32 32 33 34 35 36 36 36 36 37 38 38 39 40 41 41 43 44 45 46 47 48 49 51 52 53 54 55 56 57 58 59 59 58 57 56 56 55 53 50 48 45
32 33 34 34 34 35 35 36 37 37 37 38 39 40 41 41 42 44 45 45 46 47 48 49 50 52 53 54 55 56 57 58 58 58 57 56 55 54 53 52 50 47 45 42
34 34 34 35 35 36 36 37 38 38 38 39 40 41 42 42 43 44 45 45 46 48 49 50 51 52 53 54 55 56 57 58 58 57 56 55 53 52 50 49 47 44 42 38
35 35 35 35 36 36 37 38 38 39 39 40 41 41 42 43 44 44 45 46 47 48 49 50 51 52 53 54 54 55 56 57 57 56 54 52 51 49 47 46 44 41 37 34
36 36 36 36 37 38 38 38 39 39 39 40 41 42 42 43 44 45 46 46 48 49 50 50 51 52 53 53 54 55 56 56 55 54 51 49 48 46 44 42 39 36 32 30
37 37 37 37 38 38 39 39 39 39 40 40 41 42 43 44 44 45 46 47 48 49 49 50 51 51 52 52 52 53 54 54 53 51 49 47 45 43 40 38 34 31 28 26
38 38 39 39 39 40 40 40 40 40 41 41 42 42 43 44 44 45 46 47 47 48 48 49 50 50 50 50 51 52 52 51 50 48 45 43 41 39 36 33 30 27 25 23
39 39 40 40 40 40 40 40 40 41 41 42 42 43 43 43 44 45 45 46 46 46 47 48 49 49 49 49 50 50 49 49 47 44 42 39 37 34 31 29 26 24 23 22
41 41 41 40 40 40 40 41 41 41 42 42 43 43 43 43 44 44 45 45 45 45 46 47 47 47 47 48 48 47 47 46 43 41 38 35 33 30 28 26 24 23 21 20
Wind_Direction
79 84 89 93 90 83 77 74 79 81 82 78 72 69 69 73 76 73 72 71 71 68 63 64 71 78 83 92 103 136 176 200 212 225 227 228 234 237 243 246 248 250 253 253
81 85 85 87 84 79 77 79 84 86 85 78 70 74 78 75 70 62 57 54 60 62 55 53 58 61 59 65 79 128 202 226 236 238 238 242 246 248 251 251 253 255 257 259
85 81 79 75 85 84 84 86 91 72 73 65 62 66 55 51 52 46 39 37 44 48 49 46 43 41 39 37 26 357 293 264 260 259 261 259 259 260 259 260 263 264 265 266
93 86 80 81 90 89 80 89 100 68 57 42 38 35 36 33 27 20 17 19 21 25 18 13 10 8 2 354 344 331 315 299 288 281 278 275 272 269 268 269 270 270 271 271
98 93 81 79 81 85 72 47 34 12 358 357 7 12 1 357 354 352 349 348 347 346 341 339 336 333 330 326 321 314 308 304 299 294 291 287 283 280 277 276 276 276 275 275
99 16 24 25 42 16 7 354 342 332 324 322 324 323 318 316 317 320 321 319 318 318 317 316 315 315 313 312 310 308 305 302 299 295 293 291 288 285 282 280 280 280 279 278
287 292 304 294 290 291 296 307 308 308 302 299 300 302 303 303 304 304 304 304 305 306 306 307 308 309 309 308 308 307 305 304 301 299 297 296 294 291 288 285 284 283 283 283
291 288 287 282 286 288 289 292 294 292 291 294 295 294 295 296 297 297 299 300 301 302 302 304 305 307 307 307 306 306 306 305 304 303 301 300 298 297 294 292 289 287 286 286
287 288 284 282 281 281 281 281 280 281 285 288 290 290 290 292 292 293 295 297 299 300 302 304 305 306 307 307 308 308 308 307 306 304 303 302 301 300 298 296 294 292 290 289
285 286 284 283 281 279 276 276 276 277 280 283 286 287 289 291 291 292 294 296 299 301 303 304 305 306 307 307 307 307 307 306 305 305 304 304 303 302 300 298 297 295 294 292
281 283 285 285 283 280 278 277 277 278 280 283 284 286 289 291 293 295 296 298 299 301 303 304 305 306 306 306 307 307 306 306 306 306 306 305 304 303 302 301 300 298 296 295
278 280 282 284 283 282 282 282 281 281 282 283 285 288 290 292 294 295 297 298 299 301 303 304 305 306 306 306 307 307 308 307 307 307 307 306 306 305 304 304 303 301 300 299
277 278 280 280 280 281 281 281 282 283 283 284 286 288 290 292 294 295 296 298 300 301 303 304 306 306 306 307 307 307 308 308 308 308 308 308 308 307 306 306 306 305 303 302
279 279 279 279 279 280 280 280 281 282 284 285 287 288 290 292 293 294 296 298 300 301 303 305 306 306 307 307 307 308 308 309 310 310 310 310 310 309 309 308 307 306 306 305
279 280 280 280 280 280 280 280 281 282 283 284 286 288 289 291 292 294 296 297 299 301 303 304 306 306 307 307 308 308 309 310 311 311 311 311 312 312 311 310 309 308 308 306
279 279 280 280 280 280 281 281 282 282 282 284 285 286 288 290 292 294 295 297 299 301 302 304 306 307 307 308 309 310 310 311 312 312 312 313 313 313 313 312 311 310 309 308
280 279 279 280 280 281 281 281 282 283 284 284 284 285 287 289 291 293 295 297 299 301 302 304 306 307 308 309 310 311 312 312 312 313 313 313 313 314 314 314 314 312 311 310
283 282 282 281 280 280 281 282 283 283 284 284 284 285 286 288 290 293 295 297 299 301 303 305 306 307 308 309 310 311 312 313 314 314 314 314 314 314 314 315 315 314 312 311
283 283 283 283 283 283 283 282 283 283 283 283 283 284 286 287 289 292 294 297 299 302 303 305 306 308 309 310 311 312 313 314 315 315 315 315 315 315 315 315 315 315 314 313
283 283 283 283 284 284 284 284 284 284 283 283 284 285 286 287 289 292 294 297 300 302 303 305 307 308 309 310 311 313 314 315 316 316 316 316 316 316 316 316 316 316 315 314
284 284 285 284 284 284 285 285 285 285 284 284 285 287 288 289 291 293 295 297 299 301 303 305 307 308 309 310 312 314 315 316 317 317 317 317 317 317 317 318 317 316 316 315
284 284 285 286 286 286 286 286 286 286 286 285 286 288 289 290 291 293 296 298 300 301 303 305 306 307 309 311 312 314 316 317 318 318 318 317 318 318 318 318 318 318 317 316
284 285 286 286 287 286 286 286 286 286 286 287 288 288 289 290 292 294 296 298 300 302 304 305 307 308 309 311 313 315 317 318 319 319 318 318 319 319 319 319 320 320 320 319
285 285 286 287 288 287 287 287 287 287 287 288 289 290 290 291 293 295 297 299 301 303 305 306 307 309 310 312 314 316 318 319 319 320 319 319 319 320 321 321 321 321 321 322
284 285 285 287 287 287 287 287 287 287 288 289 290 290 291 292 294 297 299 301 302 303 305 307 308 310 312 313 315 316 318 319 320 320 320 320 321 322 322 323 323 323 323 323
284 285 286 286 286 286 286 286 287 288 289 290 290 291 292 294 296 299 300 302 303 304 306 308 310 311 313 314 315 317 319 320 321 321 321 321 322 323 324 324 324 324 324 324
284 285 285 286 286 286 287 287 288 288 289 290 290 292 293 295 297 299 301 302 303 305 307 309 310 312 313 315 316 318 320 321 322 322 322 322 323 323 324 324 324 324 324 325
Height
5632 5631 5631 5631 5631 5631 5631 5631 5631 5630 5630 5629 5628 5627 5627 5625 5624 5623 5622 5621 5620 5620 5618 5617 5616 5616 5616 5616 5616 5616 5617 5618 5620 5622 5624 5627 5629 5631 5633 5635 5637 5639 5640 5642
5635 5634 5634 5634 5634 5634 5633 5633 5633 5633 5633 5632 5631 5630 5630 5629 5628 5627 5626 5625 5624 5622 5621 5620 5620 5619 5618 5618 5618 5618 5618 5619 5620 5621 5623 5624 5625 5627 5628 5629 5631 5632 5633 5633
5638 5637 5637 5637 5637 5636 5636 5636 5635 5635 5636 5634 5634 5633 5632 5631 5631 5630 5629 5627 5626 5625 5624 5623 5622 5621 5620 5620 5619 5619 5618 5618 5619 5619 5620 5620 5621 5622 5623 5623 5624 5624 5624 5623
5640 5641 5640 5642 5639 5638 5638 5638 5637 5637 5637 5636 5636 5635 5634 5633 5632 5631 5631 5630 5628 5627 5626 5625 5623 5622 5621 5620 5620 5619 5618 5618 5617 5617 5616 5616 5616 5616 5616 5616 5616 5615 5614 5613
5642 5642 5642 5642 5641 5640 5640 5640 5639 5638 5638 5637 5636 5636 5635 5634 5633 5632 5631 5630 5629 5628 5627 5625 5624 5623 5622 5620 5619 5618 5616 5615 5613 5612 5611 5610 5609 5608 5607 5606 5605 5604 5603 5601
5643 5643 5643 5644 5642 5641 5642 5641 5640 5639 5639 5638 5637 5637 5637 5635 5634 5633 5632 5631 5629 5628 5627 5625 5623 5622 5620 5618 5616 5614 5612 5610 5608 5607 5605 5603 5601 5599 5598 5596 5594 5592 5590 5587
5644 5643 5644 5644 5643 5643 5644 5643 5641 5640 5639 5638 5638 5637 5637 5635 5634 5633 5631 5630 5628 5627 5625 5623 5621 5619 5617 5615 5612 5610 5607 5605 5602 5599 5597 5594 5592 5589 5587 5584 5581 5578 5575 5571
5644 5644 5646 5643 5643 5643 5643 5641 5640 5639 5639 5638 5637 5636 5635 5634 5633 5631 5630 5628 5626 5624 5622 5620 5618 5616 5613 5610 5607 5604 5601 5597 5594 5591 5588 5584 5581 5577 5573 5569 5565 5561 5557 5552
5645 5646 5643 5642 5641 5641 5641 5640 5639 5638 5638 5637 5636 5635 5633 5632 5631 5629 5627 5625 5623 5621 5618 5616 5613 5610 5607 5604 5600 5597 5593 5589 5586 5582 5577 5573 5568 5563 5558 5553 5548 5542 5537 5532
5643 5643 5641 5640 5639 5639 5639 5638 5637 5637 5636 5635 5633 5632 5631 5629 5627 5625 5623 5621 5619 5616 5614 5611 5608 5604 5601 5597 5593 5589 5585 5580 5576 5571 5566 5560 5554 5548 5542 5536 5530 5524 5518 5512
5640 5640 5639 5638 5637 5636 5636 5635 5634 5634 5633 5632 5630 5629 5627 5625 5623 5621 5619 5616 5614 5611 5608 5605 5601 5597 5593 5589 5585 5580 5575 5570 5565 5559 5553 5547 5540 5533 5526 5519 5511 5505 5499 5492
5638 5637 5636 5636 5634 5633 5632 5632 5631 5630 5629 5627 5626 5624 5622 5620 5618 5616 5613 5611 5608 5605 5602 5598 5594 5590 5585 5580 5576 5570 5565 5559 5553 5547 5540 5533 5525 5517 5508 5501 5493 5485 5477 5470
5633 5633 5632 5631 5630 5629 5628 5627 5626 5625 5624 5622 5621 5619 5617 5615 5613 5610 5607 5604 5601 5598 5594 5590 5586 5581 5576 5571 5565 5560 5554 5547 5540 5533 5525 5518 5510 5502 5494 5485 5475 5467 5459 5451
5628 5627 5627 5626 5625 5624 5623 5622 5621 5619 5618 5616 5614 5612 5610 5608 5605 5603 5600 5597 5593 5590 5586 5581 5577 5572 5566 5560 5554 5548 5541 5534 5527 5519 5511 5503 5494 5486 5477 5469 5461 5451 5442 5433
5621 5621 5620 5619 5619 5617 5616 5615 5614 5613 5611 5609 5607 5605 5603 5600 5598 5595 5592 5588 5584 5581 5576 5571 5566 5561 5555 5549 5543 5536 5529 5521 5513 5505 5497 5488 5479 5470 5461 5452 5444 5435 5426 5417
5614 5613 5613 5612 5611 5610 5608 5607 5606 5604 5603 5601 5599 5597 5594 5592 5589 5586 5582 5579 5575 5571 5566 5561 5555 5550 5544 5537 5530 5523 5515 5508 5499 5491 5482 5474 5465 5456 5446 5437 5428 5419 5410 5402
5606 5605 5604 5603 5602 5601 5600 5598 5597 5595 5594 5592 5590 5587 5585 5582 5579 5576 5573 5569 5565 5560 5555 5550 5544 5538 5531 5525 5518 5510 5502 5494 5486 5477 5468 5459 5450 5441 5432 5423 5413 5404 5396 5387
5597 5596 5595 5594 5593 5592 5590 5589 5587 5585 5583 5582 5580 5577 5575 5572 5569 5566 5562 5558 5553 5548 5543 5538 5532 5525 5519 5512 5505 5497 5489 5481 5472 5463 5454 5445 5435 5426 5417 5408 5399 5390 5382 5374
5588 5587 5586 5585 5583 5581 5580 5578 5577 5575 5573 5571 5569 5567 5564 5561 5558 5554 5550 5546 5541 5537 5531 5525 5519 5513 5506 5499 5492 5484 5475 5467 5458 5449 5439 5430 5421 5412 5403 5394 5386 5377 5369 5362
5579 5578 5576 5575 5573 5571 5570 5568 5566 5564 5562 5560 5558 5555 5552 5549 5546 5542 5538 5534 5529 5524 5519 5513 5507 5500 5493 5486 5478 5470 5462 5453 5444 5435 5426 5417 5408 5399 5390 5381 5373 5365 5358 5351
5568 5567 5565 5564 5562 5561 5559 5557 5555 5553 5551 5548 5546 5544 5541 5537 5534 5530 5526 5522 5517 5512 5506 5500 5494 5487 5480 5473 5465 5457 5449 5440 5431 5422 5413 5404 5395 5386 5378 5369 5361 5354 5347 5341
5557 5556 5555 5553 5551 5550 5548 5545 5543 5541 5539 5537 5534 5532 5529 5525 5522 5518 5514 5510 5505 5499 5494 5488 5481 5475 5468 5460 5452 5444 5436 5427 5418 5409 5400 5391 5383 5375 5366 5358 5351 5343 5337 5332
5547 5545 5544 5542 5540 5538 5536 5534 5532 5529 5527 5525 5522 5520 5516 5513 5509 5506 5502 5497 5492 5487 5481 5475 5469 5462 5455 5447 5440 5432 5423 5414 5405 5396 5388 5380 5372 5364 5356 5348 5341 5335 5329 5324
5536 5534 5532 5531 5528 5526 5524 5522 5520 5517 5515 5513 5510 5507 5504 5501 5497 5493 5489 5484 5479 5474 5468 5462 5456 5449 5442 5435 5428 5420 5411 5402 5394 5385 5376 5369 5361 5354 5346 5340 5333 5328 5323 5318
5524 5522 5521 5519 5516 5514 5512 5510 5507 5505 5503 5500 5498 5495 5491 5488 5485 5481 5476 5472 5466 5461 5456 5450 5443 5437 5430 5423 5415 5407 5399 5391 5382 5374 5366 5359 5351 5345 5338 5332 5327 5322 5318 5313
5512 5510 5508 5506 5504 5502 5499 5497 5495 5493 5491 5488 5485 5482 5479 5476 5472 5468 5464 5459 5454 5449 5443 5437 5431 5425 5418 5411 5403 5396 5388 5380 5371 5364 5356 5350 5343 5337 5331 5326 5321 5317 5313 5309
5499 5497 5495 5493 5491 5489 5487 5485 5483 5481 5478 5476 5473 5470 5467 5463 5459 5456 5451 5447 5442 5437 5431 5425 5419 5413 5406 5399 5392 5385 5377 5369 5362 5355 5348 5342 5336 5331 5326 5321 5317 5313 5309 5305